Wetterdaten: Mittwoch, 16.05.2012
Datum Zeit Temp. I. Temp. A. Boden 5 cm Feuchte A. Sonne Luftdruck Regen Wind Sonnenschein
16.05.2012 00:02 21,4 C 8,1 C 7,8 C 86 % 0 % 1007 hPa 0,0 l/m 8,0 km/h (2 Bft) 0 min
16.05.2012 00:05 21,4 C 8,0 C 7,9 C 86 % 0 % 1007 hPa 0,0 l/m 5,9 km/h (2 Bft) 0 min
16.05.2012 00:08 21,4 C 8,0 C 7,9 C 86 % 0 % 1007 hPa 0,0 l/m 5,8 km/h (2 Bft) 0 min
16.05.2012 00:11 21,4 C 8,0 C 8,0 C 86 % 0 % 1007 hPa 0,0 l/m 8,9 km/h (2 Bft) 0 min
16.05.2012 00:14 21,4 C 8,0 C 7,9 C 86 % 0 % 1007 hPa 0,0 l/m 4,6 km/h (1 Bft) 0 min
16.05.2012 00:17 21,4 C 8,0 C 7,8 C 87 % 0 % 1007 hPa 0,0 l/m 4,6 km/h (1 Bft) 0 min
16.05.2012 00:20 21,4 C 8,0 C 7,8 C 87 % 0 % 1007 hPa 0,0 l/m 8,0 km/h (2 Bft) 0 min
16.05.2012 00:23 21,4 C 8,0 C 7,9 C 87 % 0 % 1007 hPa 0,0 l/m 6,8 km/h (2 Bft) 0 min
16.05.2012 00:26 21,4 C 8,0 C 8,0 C 87 % 0 % 1007 hPa 0,0 l/m 2,4 km/h (1 Bft) 0 min
16.05.2012 00:29 21,4 C 8,0 C 8,0 C 87 % 0 % 1007 hPa 0,0 l/m 12,2 km/h (2 Bft) 0 min
16.05.2012 00:32 21,4 C 8,0 C 7,9 C 87 % 0 % 1007 hPa 0,0 l/m 5,8 km/h (2 Bft) 0 min
16.05.2012 00:35 21,4 C 8,0 C 7,8 C 88 % 0 % 1007 hPa 0,0 l/m 11,8 km/h (2 Bft) 0 min
16.05.2012 00:38 21,4 C 7,9 C 7,8 C 88 % 0 % 1007 hPa 0,0 l/m 6,3 km/h (2 Bft) 0 min
16.05.2012 00:41 21,3 C 7,9 C 7,9 C 88 % 0 % 1007 hPa 0,0 l/m 1,8 km/h (1 Bft) 0 min
16.05.2012 00:44 21,3 C 7,9 C 7,8 C 88 % 0 % 1007 hPa 0,0 l/m 4,2 km/h (1 Bft) 0 min
16.05.2012 00:47 21,3 C 7,9 C 7,8 C 88 % 0 % 1006 hPa 0,0 l/m 7,0 km/h (2 Bft) 0 min
16.05.2012 00:50 21,3 C 7,9 C 7,8 C 88 % 0 % 1006 hPa 0,0 l/m 1,6 km/h (1 Bft) 0 min
16.05.2012 00:53 21,3 C 7,9 C 7,8 C 88 % 0 % 1006 hPa 0,0 l/m 7,2 km/h (2 Bft) 0 min
16.05.2012 00:56 21,3 C 7,9 C 7,8 C 88 % 0 % 1006 hPa 0,0 l/m 4,8 km/h (1 Bft) 0 min
16.05.2012 00:59 21,3 C 7,8 C 7,8 C 89 % 0 % 1006 hPa 0,0 l/m 2,4 km/h (1 Bft) 0 min
16.05.2012 01:02 21,3 C 7,8 C 7,8 C 89 % 0 % 1006 hPa 0,0 l/m 6,1 km/h (2 Bft) 0 min
16.05.2012 01:05 21,3 C 7,8 C 7,8 C 89 % 0 % 1006 hPa 0,0 l/m 6,1 km/h (2 Bft) 0 min
16.05.2012 01:08 21,3 C 7,8 C 7,8 C 89 % 0 % 1006 hPa 0,0 l/m 7,2 km/h (2 Bft) 0 min
16.05.2012 01:11 21,3 C 7,7 C 7,8 C 89 % 0 % 1006 hPa 0,0 l/m 4,0 km/h (1 Bft) 0 min
16.05.2012 01:14 21,3 C 7,7 C 7,9 C 89 % 0 % 1006 hPa 0,0 l/m 6,6 km/h (2 Bft) 0 min
16.05.2012 01:17 21,3 C 7,7 C 7,9 C 89 % 0 % 1006 hPa 0,0 l/m 3,6 km/h (1 Bft) 0 min
16.05.2012 01:20 21,3 C 7,7 C 8,0 C 90 % 0 % 1006 hPa 0,0 l/m 5,2 km/h (1 Bft) 0 min
16.05.2012 01:23 21,3 C 7,7 C 8,0 C 90 % 0 % 1006 hPa 0,0 l/m 6,9 km/h (2 Bft) 0 min
16.05.2012 01:26 21,3 C 7,7 C 7,9 C 90 % 0 % 1006 hPa 0,0 l/m 5,0 km/h (1 Bft) 0 min
16.05.2012 01:29 21,3 C 7,7 C 8,0 C 90 % 0 % 1006 hPa 0,0 l/m 6,9 km/h (2 Bft) 0 min
16.05.2012 01:32 21,3 C 7,7 C 8,0 C 90 % 0 % 1006 hPa 0,0 l/m 6,9 km/h (2 Bft) 0 min
16.05.2012 01:35 21,3 C 7,7 C 8,0 C 89 % 0 % 1006 hPa 0,0 l/m 7,9 km/h (2 Bft) 0 min
16.05.2012 01:38 21,3 C 7,7 C 7,9 C 89 % 0 % 1006 hPa 0,0 l/m 7,8 km/h (2 Bft) 0 min
16.05.2012 01:41 21,3 C 7,7 C 7,9 C 89 % 0 % 1006 hPa 0,0 l/m 9,4 km/h (2 Bft) 0 min
16.05.2012 01:44 21,3 C 7,7 C 7,9 C 89 % 0 % 1006 hPa 0,0 l/m 7,4 km/h (2 Bft) 0 min
16.05.2012 01:47 21,3 C 7,7 C 8,1 C 88 % 0 % 1006 hPa 0,0 l/m 2,9 km/h (1 Bft) 0 min
16.05.2012 01:50 21,3 C 7,8 C 8,0 C 88 % 0 % 1006 hPa 0,0 l/m 2,1 km/h (1 Bft) 0 min
16.05.2012 01:53 21,3 C 7,8 C 8,1 C 88 % 0 % 1006 hPa 0,0 l/m 10,4 km/h (2 Bft) 0 min
16.05.2012 01:56 21,3 C 7,7 C 8,1 C 88 % 0 % 1007 hPa 0,0 l/m 8,2 km/h (2 Bft) 0 min
16.05.2012 01:59 21,3 C 7,7 C 8,0 C 88 % 0 % 1006 hPa 0,0 l/m 1,2 km/h (1 Bft) 0 min
16.05.2012 02:02 21,3 C 7,8 C 8,1 C 88 % 0 % 1006 hPa 0,0 l/m 8,1 km/h (2 Bft) 0 min
16.05.2012 02:05 21,3 C 7,7 C 8,1 C 88 % 0 % 1006 hPa 0,0 l/m 1,6 km/h (1 Bft) 0 min
16.05.2012 02:08 21,3 C 7,8 C 8,1 C 88 % 0 % 1006 hPa 0,0 l/m 1,0 km/h (0 Bft) 0 min
16.05.2012 02:11 21,3 C 7,8 C 8,0 C 88 % 0 % 1006 hPa 0,0 l/m 1,0 km/h (0 Bft) 0 min
16.05.2012 02:14 21,3 C 7,8 C 8,1 C 88 % 0 % 1006 hPa 0,0 l/m 3,3 km/h (1 Bft) 0 min
16.05.2012 02:17 21,3 C 7,8 C 8,1 C 88 % 0 % 1006 hPa 0,0 l/m 2,4 km/h (1 Bft) 0 min
16.05.2012 02:20 21,3 C 7,8 C 8,1 C 88 % 0 % 1007 hPa 0,0 l/m 3,4 km/h (1 Bft) 0 min
16.05.2012 02:23 21,3 C 7,8 C 8,1 C 89 % 0 % 1007 hPa 0,0 l/m 1,1 km/h (1 Bft) 0 min
16.05.2012 02:26 21,3 C 7,8 C 8,0 C 89 % 0 % 1007 hPa 0,0 l/m 1,3 km/h (1 Bft) 0 min
16.05.2012 02:29 21,3 C 7,8 C 8,0 C 89 % 0 % 1007 hPa 0,0 l/m 4,5 km/h (1 Bft) 0 min
16.05.2012 02:32 21,3 C 7,8 C 8,0 C 89 % 0 % 1006 hPa 0,0 l/m 4,5 km/h (1 Bft) 0 min
16.05.2012 02:35 21,3 C 7,8 C 8,1 C 89 % 0 % 1006 hPa 0,0 l/m 4,5 km/h (1 Bft) 0 min
16.05.2012 02:38 21,3 C 7,8 C 8,1 C 88 % 0 % 1006 hPa 0,0 l/m 5,4 km/h (1 Bft) 0 min
16.05.2012 02:41 21,3 C 7,8 C 8,1 C 88 % 0 % 1006 hPa 0,0 l/m 8,9 km/h (2 Bft) 0 min
16.05.2012 02:44 21,3 C 7,9 C 8,1 C 88 % 0 % 1006 hPa 0,0 l/m 8,5 km/h (2 Bft) 0 min
16.05.2012 02:47 21,3 C 7,9 C 8,1 C 88 % 0 % 1006 hPa 0,0 l/m 4,6 km/h (1 Bft) 0 min
16.05.2012 02:50 21,3 C 7,9 C 8,1 C 88 % 0 % 1006 hPa 0,0 l/m 6,4 km/h (2 Bft) 0 min
16.05.2012 02:53 21,2 C 7,8 C 8,1 C 89 % 0 % 1007 hPa 0,0 l/m 10,5 km/h (2 Bft) 0 min
16.05.2012 02:56 21,2 C 7,8 C 8,1 C 89 % 0 % 1007 hPa 0,0 l/m 5,9 km/h (2 Bft) 0 min
16.05.2012 02:59 21,2 C 7,8 C 8,0 C 89 % 0 % 1007 hPa 0,0 l/m 7,2 km/h (2 Bft) 0 min
16.05.2012 03:02 21,2 C 7,8 C 8,0 C 89 % 0 % 1007 hPa 0,0 l/m 7,2 km/h (2 Bft) 0 min
16.05.2012 03:05 21,2 C 7,8 C 8,0 C 89 % 0 % 1007 hPa 0,0 l/m 4,5 km/h (1 Bft) 0 min
16.05.2012 03:08 21,2 C 7,8 C 8,0 C 90 % 0 % 1007 hPa 0,0 l/m 3,9 km/h (1 Bft) 0 min
16.05.2012 03:11 21,2 C 7,8 C 8,0 C 90 % 0 % 1007 hPa 0,0 l/m 6,7 km/h (2 Bft) 0 min
16.05.2012 03:14 21,2 C 7,8 C 8,0 C 90 % 0 % 1007 hPa 0,0 l/m 5,9 km/h (2 Bft) 0 min
16.05.2012 03:17 21,2 C 7,7 C 8,0 C 90 % 0 % 1007 hPa 0,0 l/m 3,9 km/h (1 Bft) 0 min
16.05.2012 03:20 21,2 C 7,7 C 7,9 C 90 % 0 % 1007 hPa 0,0 l/m 4,8 km/h (1 Bft) 0 min
16.05.2012 03:23 21,2 C 7,7 C 7,9 C 90 % 0 % 1007 hPa 0,0 l/m 8,5 km/h (2 Bft) 0 min
16.05.2012 03:26 21,2 C 7,7 C 7,9 C 90 % 0 % 1007 hPa 0,0 l/m 14,0 km/h (3 Bft) 0 min
16.05.2012 03:29 21,2 C 7,7 C 7,9 C 90 % 0 % 1007 hPa 0,0 l/m 10,2 km/h (2 Bft) 0 min
16.05.2012 03:32 21,2 C 7,7 C 7,9 C 91 % 0 % 1007 hPa 0,0 l/m 6,4 km/h (2 Bft) 0 min
16.05.2012 03:35 21,2 C 7,7 C 7,8 C 91 % 0 % 1007 hPa 0,0 l/m 6,4 km/h (2 Bft) 0 min
16.05.2012 03:38 21,2 C 7,7 C 7,8 C 91 % 0 % 1007 hPa 0,0 l/m 11,0 km/h (2 Bft) 0 min
16.05.2012 03:41 21,2 C 7,7 C 7,8 C 91 % 0 % 1007 hPa 0,0 l/m 17,1 km/h (3 Bft) 0 min
16.05.2012 03:44 21,2 C 7,6 C 7,7 C 91 % 0 % 1007 hPa 0,0 l/m 14,1 km/h (3 Bft) 0 min
16.05.2012 03:47 21,2 C 7,6 C 7,7 C 91 % 0 % 1007 hPa 0,0 l/m 17,0 km/h (3 Bft) 0 min
16.05.2012 03:50 21,2 C 7,6 C 7,7 C 92 % 0 % 1007 hPa 0,0 l/m 14,8 km/h (3 Bft) 0 min
16.05.2012 03:53 21,2 C 7,6 C 7,7 C 92 % 0 % 1007 hPa 0,0 l/m 7,9 km/h (2 Bft) 0 min
16.05.2012 03:56 21,2 C 7,5 C 7,6 C 91 % 0 % 1007 hPa 0,0 l/m 22,1 km/h (4 Bft) 0 min
16.05.2012 03:59 21,2 C 7,5 C 7,5 C 91 % 0 % 1007 hPa 0,0 l/m 25,4 km/h (4 Bft) 0 min
16.05.2012 04:02 21,2 C 7,5 C 7,5 C 91 % 0 % 1007 hPa 0,0 l/m 25,4 km/h (4 Bft) 0 min
16.05.2012 04:05 21,2 C 7,5 C 7,5 C 90 % 0 % 1007 hPa 0,0 l/m 19,1 km/h (3 Bft) 0 min
16.05.2012 04:08 21,2 C 7,4 C 7,5 C 90 % 0 % 1007 hPa 0,0 l/m 25,1 km/h (4 Bft) 0 min
16.05.2012 04:11 21,2 C 7,4 C 7,4 C 90 % 0 % 1007 hPa 0,0 l/m 26,3 km/h (4 Bft) 0 min
16.05.2012 04:14 21,2 C 7,4 C 7,3 C 90 % 0 % 1007 hPa 0,0 l/m 24,3 km/h (4 Bft) 0 min
16.05.2012 04:17 21,2 C 7,3 C 7,2 C 91 % 0 % 1007 hPa 0,0 l/m 22,1 km/h (4 Bft) 0 min
16.05.2012 04:20 21,2 C 7,3 C 7,2 C 91 % 0 % 1007 hPa 0,0 l/m 19,8 km/h (3 Bft) 0 min
16.05.2012 04:23 21,2 C 7,3 C 7,2 C 91 % 0 % 1007 hPa 0,0 l/m 19,1 km/h (3 Bft) 0 min
16.05.2012 04:26 21,2 C 7,2 C 7,2 C 92 % 0 % 1007 hPa 0,0 l/m 13,6 km/h (3 Bft) 0 min
16.05.2012 04:29 21,2 C 7,2 C 7,0 C 92 % 0 % 1007 hPa 0,0 l/m 21,0 km/h (4 Bft) 0 min
16.05.2012 04:32 21,2 C 7,2 C 6,9 C 92 % 0 % 1007 hPa 0,0 l/m 24,0 km/h (4 Bft) 0 min
16.05.2012 04:35 21,2 C 7,1 C 6,9 C 93 % 0 % 1007 hPa 0,3 l/m 17,3 km/h (3 Bft) 0 min
16.05.2012 04:38 21,2 C 7,1 C 6,8 C 93 % 0 % 1007 hPa 0,0 l/m 6,5 km/h (2 Bft) 0 min
16.05.2012 04:41 21,2 C 7,0 C 6,5 C 94 % 0 % 1007 hPa 0,3 l/m 17,9 km/h (3 Bft) 0 min
16.05.2012 04:44 21,2 C 7,0 C 6,5 C 94 % 0 % 1007 hPa 0,0 l/m 17,9 km/h (3 Bft) 0 min
16.05.2012 04:47 21,2 C 6,9 C 6,5 C 95 % 0 % 1007 hPa 0,0 l/m 17,9 km/h (3 Bft) 0 min
16.05.2012 04:50 21,2 C 6,8 C 6,2 C 94 % 0 % 1007 hPa 0,3 l/m 12,8 km/h (3 Bft) 0 min
16.05.2012 04:53 21,2 C 6,7 C 6,2 C 95 % 0 % 1007 hPa 0,0 l/m 6,8 km/h (2 Bft) 0 min
16.05.2012 04:56 21,2 C 6,6 C 6,0 C 95 % 0 % 1007 hPa 0,0 l/m 9,2 km/h (2 Bft) 0 min
16.05.2012 04:59 21,2 C 6,5 C 6,0 C 95 % 0 % 1007 hPa 0,0 l/m 10,2 km/h (2 Bft) 0 min
16.05.2012 05:02 21,2 C 6,4 C 6,0 C 95 % 0 % 1007 hPa 0,3 l/m 18,6 km/h (3 Bft) 0 min
16.05.2012 05:05 21,2 C 6,3 C 6,0 C 95 % 0 % 1007 hPa 0,0 l/m 18,6 km/h (3 Bft) 0 min
16.05.2012 05:08 21,2 C 6,3 C 6,0 C 95 % 0 % 1007 hPa 0,0 l/m 13,9 km/h (3 Bft) 0 min
16.05.2012 05:11 21,2 C 6,2 C 6,0 C 95 % 0 % 1007 hPa 0,0 l/m 26,1 km/h (4 Bft) 0 min
16.05.2012 05:14 21,2 C 6,2 C 5,8 C 95 % 0 % 1008 hPa 0,0 l/m 25,8 km/h (4 Bft) 0 min
16.05.2012 05:17 21,2 C 6,1 C 5,9 C 95 % 0 % 1008 hPa 0,0 l/m 18,5 km/h (3 Bft) 0 min
16.05.2012 05:20 21,2 C 6,1 C 5,9 C 95 % 0 % 1008 hPa 0,0 l/m 19,6 km/h (3 Bft) 0 min
16.05.2012 05:23 21,2 C 6,1 C 5,9 C 96 % 0 % 1008 hPa 0,0 l/m 18,5 km/h (3 Bft) 0 min
16.05.2012 05:26 21,2 C 6,1 C 5,9 C 96 % 0 % 1008 hPa 0,3 l/m 16,0 km/h (3 Bft) 0 min
16.05.2012 05:29 21,2 C 6,1 C 5,9 C 96 % 0 % 1008 hPa 0,0 l/m 16,6 km/h (3 Bft) 0 min
16.05.2012 05:32 21,2 C 6,0 C 5,9 C 96 % 0 % 1008 hPa 0,0 l/m 13,9 km/h (3 Bft) 0 min
16.05.2012 05:35 21,2 C 6,0 C 5,9 C 96 % 0 % 1008 hPa 0,0 l/m 10,0 km/h (2 Bft) 0 min
16.05.2012 05:38 21,2 C 5,9 C 5,8 C 96 % 0 % 1008 hPa 0,0 l/m 9,5 km/h (2 Bft) 0 min
16.05.2012 05:41 21,2 C 5,9 C 5,8 C 96 % 0 % 1008 hPa 0,0 l/m 11,6 km/h (2 Bft) 0 min
16.05.2012 05:44 21,2 C 5,8 C 5,8 C 97 % 0 % 1008 hPa 0,3 l/m 12,7 km/h (3 Bft) 0 min
16.05.2012 05:47 21,2 C 5,8 C 5,7 C 97 % 1 % 1008 hPa 0,0 l/m 16,1 km/h (3 Bft) 0 min
16.05.2012 05:50 21,2 C 5,8 C 5,7 C 97 % 1 % 1008 hPa 0,0 l/m 22,3 km/h (4 Bft) 0 min
16.05.2012 05:53 21,2 C 5,7 C 5,6 C 97 % 1 % 1008 hPa 0,0 l/m 29,9 km/h (5 Bft) 0 min
16.05.2012 05:56 21,2 C 5,7 C 5,6 C 97 % 1 % 1008 hPa 0,0 l/m 24,1 km/h (4 Bft) 0 min
16.05.2012 05:59 21,2 C 5,7 C 5,6 C 97 % 1 % 1008 hPa 0,0 l/m 27,7 km/h (4 Bft) 0 min
16.05.2012 06:02 21,2 C 5,7 C 5,6 C 97 % 1 % 1008 hPa 0,0 l/m 35,9 km/h (5 Bft) 0 min
16.05.2012 06:05 21,2 C 5,7 C 5,4 C 97 % 2 % 1008 hPa 0,0 l/m 34,9 km/h (5 Bft) 0 min
16.05.2012 06:08 21,2 C 5,6 C 5,5 C 96 % 2 % 1008 hPa 0,0 l/m 33,3 km/h (5 Bft) 0 min
16.05.2012 06:11 21,2 C 5,6 C 5,4 C 96 % 2 % 1008 hPa 0,0 l/m 25,8 km/h (4 Bft) 0 min
16.05.2012 06:14 21,2 C 5,6 C 5,4 C 96 % 2 % 1008 hPa 0,0 l/m 26,1 km/h (4 Bft) 0 min
16.05.2012 06:17 21,2 C 5,6 C 5,4 C 95 % 3 % 1008 hPa 0,0 l/m 22,0 km/h (4 Bft) 0 min
16.05.2012 06:20 21,2 C 5,6 C 5,4 C 95 % 3 % 1008 hPa 0,0 l/m 22,0 km/h (4 Bft) 0 min
16.05.2012 06:23 21,2 C 5,5 C 5,4 C 95 % 3 % 1008 hPa 0,0 l/m 22,5 km/h (4 Bft) 0 min
16.05.2012 06:26 21,2 C 5,5 C 5,5 C 95 % 3 % 1008 hPa 0,0 l/m 23,1 km/h (4 Bft) 0 min
16.05.2012 06:29 21,3 C 5,5 C 5,4 C 95 % 3 % 1008 hPa 0,0 l/m 28,6 km/h (4 Bft) 0 min
16.05.2012 06:32 21,2 C 5,5 C 5,3 C 95 % 4 % 1008 hPa 0,0 l/m 29,3 km/h (5 Bft) 0 min
16.05.2012 06:35 21,3 C 5,5 C 5,3 C 95 % 4 % 1008 hPa 0,0 l/m 27,6 km/h (4 Bft) 0 min
16.05.2012 06:38 21,4 C 5,5 C 5,2 C 95 % 5 % 1008 hPa 0,0 l/m 31,1 km/h (5 Bft) 0 min
16.05.2012 06:41 21,4 C 5,4 C 5,3 C 95 % 5 % 1008 hPa 0,0 l/m 24,0 km/h (4 Bft) 0 min
16.05.2012 06:44 21,4 C 5,4 C 5,2 C 94 % 5 % 1008 hPa 0,0 l/m 29,5 km/h (5 Bft) 0 min
16.05.2012 06:47 21,5 C 5,4 C 5,2 C 94 % 6 % 1009 hPa 0,0 l/m 32,2 km/h (5 Bft) 0 min
16.05.2012 06:50 21,5 C 5,4 C 5,3 C 94 % 5 % 1009 hPa 0,0 l/m 23,4 km/h (4 Bft) 0 min
16.05.2012 06:53 21,6 C 5,3 C 5,3 C 94 % 5 % 1009 hPa 0,0 l/m 29,3 km/h (5 Bft) 0 min
16.05.2012 06:56 21,6 C 5,3 C 5,2 C 94 % 7 % 1009 hPa 0,0 l/m 29,3 km/h (5 Bft) 0 min
16.05.2012 06:59 21,7 C 5,3 C 5,2 C 94 % 7 % 1009 hPa 0,0 l/m 28,6 km/h (4 Bft) 0 min
16.05.2012 07:02 21,6 C 5,3 C 5,2 C 94 % 7 % 1009 hPa 0,0 l/m 26,0 km/h (4 Bft) 0 min
16.05.2012 07:05 21,6 C 5,2 C 5,2 C 94 % 7 % 1009 hPa 0,0 l/m 28,6 km/h (4 Bft) 0 min
16.05.2012 07:08 21,6 C 5,2 C 5,2 C 93 % 7 % 1009 hPa 0,0 l/m 27,8 km/h (4 Bft) 0 min
16.05.2012 07:11 21,6 C 5,2 C 5,4 C 93 % 8 % 1009 hPa 0,0 l/m 22,2 km/h (4 Bft) 0 min
16.05.2012 07:14 21,6 C 5,2 C 5,5 C 94 % 9 % 1009 hPa 0,0 l/m 20,3 km/h (4 Bft) 0 min
16.05.2012 07:17 21,6 C 5,3 C 5,6 C 94 % 10 % 1009 hPa 0,0 l/m 18,2 km/h (3 Bft) 0 min
16.05.2012 07:20 21,6 C 5,3 C 5,5 C 94 % 11 % 1009 hPa 0,0 l/m 15,4 km/h (3 Bft) 0 min
16.05.2012 07:23 21,5 C 5,3 C 5,7 C 94 % 13 % 1009 hPa 0,0 l/m 19,6 km/h (3 Bft) 0 min
16.05.2012 07:26 21,5 C 5,3 C 5,7 C 94 % 13 % 1009 hPa 0,0 l/m 25,1 km/h (4 Bft) 0 min
16.05.2012 07:29 21,5 C 5,3 C 5,7 C 94 % 12 % 1009 hPa 0,0 l/m 17,1 km/h (3 Bft) 0 min
16.05.2012 07:32 21,4 C 5,3 C 5,7 C 94 % 13 % 1009 hPa 0,0 l/m 17,3 km/h (3 Bft) 0 min
16.05.2012 07:35 21,5 C 5,4 C 5,6 C 94 % 14 % 1009 hPa 0,0 l/m 19,5 km/h (3 Bft) 0 min
16.05.2012 07:38 21,4 C 5,4 C 5,5 C 94 % 14 % 1009 hPa 0,0 l/m 25,5 km/h (4 Bft) 0 min
16.05.2012 07:41 21,4 C 5,4 C 5,7 C 93 % 16 % 1009 hPa 0,0 l/m 18,4 km/h (3 Bft) 0 min
16.05.2012 07:44 21,4 C 5,4 C 6,0 C 93 % 17 % 1009 hPa 0,0 l/m 19,2 km/h (3 Bft) 0 min
16.05.2012 07:47 21,4 C 5,4 C 6,0 C 94 % 21 % 1009 hPa 0,0 l/m 18,8 km/h (3 Bft) 0 min
16.05.2012 07:50 21,4 C 5,5 C 5,9 C 94 % 21 % 1009 hPa 0,0 l/m 17,7 km/h (3 Bft) 0 min
16.05.2012 07:53 21,4 C 5,5 C 6,2 C 94 % 20 % 1009 hPa 0,0 l/m 19,6 km/h (3 Bft) 0 min
16.05.2012 07:56 21,4 C 5,6 C 6,3 C 94 % 21 % 1009 hPa 0,0 l/m 14,4 km/h (3 Bft) 0 min
16.05.2012 07:59 21,4 C 5,6 C 6,2 C 94 % 19 % 1009 hPa 0,0 l/m 19,7 km/h (3 Bft) 0 min
16.05.2012 08:02 21,3 C 5,6 C 6,2 C 94 % 17 % 1009 hPa 0,0 l/m 19,7 km/h (3 Bft) 0 min
16.05.2012 08:05 21,3 C 5,6 C 6,1 C 93 % 16 % 1009 hPa 0,0 l/m 26,4 km/h (4 Bft) 0 min
16.05.2012 08:08 21,4 C 5,6 C 6,0 C 93 % 16 % 1009 hPa 0,0 l/m 25,5 km/h (4 Bft) 0 min
16.05.2012 08:11 21,4 C 5,6 C 5,8 C 93 % 14 % 1009 hPa 0,0 l/m 28,3 km/h (4 Bft) 0 min
16.05.2012 08:14 21,3 C 5,6 C 6,0 C 92 % 13 % 1009 hPa 0,0 l/m 28,3 km/h (4 Bft) 0 min
16.05.2012 08:17 21,3 C 5,6 C 5,8 C 92 % 12 % 1009 hPa 0,0 l/m 30,8 km/h (5 Bft) 0 min
16.05.2012 08:20 21,3 C 5,6 C 5,8 C 92 % 9 % 1009 hPa 0,0 l/m 27,2 km/h (4 Bft) 0 min
16.05.2012 08:23 21,3 C 5,6 C 5,8 C 92 % 9 % 1009 hPa 0,0 l/m 22,5 km/h (4 Bft) 0 min
16.05.2012 08:26 21,3 C 5,6 C 5,8 C 91 % 8 % 1009 hPa 0,0 l/m 20,5 km/h (4 Bft) 0 min
16.05.2012 08:29 21,3 C 5,6 C 5,8 C 92 % 9 % 1009 hPa 0,0 l/m 19,0 km/h (3 Bft) 0 min
16.05.2012 08:32 21,3 C 5,6 C 6,0 C 92 % 9 % 1009 hPa 0,0 l/m 18,1 km/h (3 Bft) 0 min
16.05.2012 08:35 21,4 C 5,6 C 5,8 C 92 % 8 % 1009 hPa 0,0 l/m 27,8 km/h (4 Bft) 0 min
16.05.2012 08:38 21,3 C 5,6 C 5,7 C 91 % 8 % 1009 hPa 0,0 l/m 27,3 km/h (4 Bft) 0 min
16.05.2012 08:41 21,3 C 5,6 C 5,7 C 91 % 8 % 1009 hPa 0,0 l/m 18,8 km/h (3 Bft) 0 min
16.05.2012 08:44 21,3 C 5,6 C 5,8 C 91 % 7 % 1009 hPa 0,0 l/m 22,0 km/h (4 Bft) 0 min
16.05.2012 08:47 21,3 C 5,6 C 5,7 C 90 % 7 % 1009 hPa 0,0 l/m 22,8 km/h (4 Bft) 0 min
16.05.2012 08:50 21,3 C 5,6 C 5,7 C 91 % 7 % 1009 hPa 0,0 l/m 23,9 km/h (4 Bft) 0 min
16.05.2012 08:53 21,3 C 5,6 C 5,6 C 91 % 7 % 1009 hPa 0,0 l/m 20,6 km/h (4 Bft) 0 min
16.05.2012 08:56 21,2 C 5,5 C 5,6 C 91 % 8 % 1009 hPa 0,0 l/m 24,8 km/h (4 Bft) 0 min
16.05.2012 08:59 21,2 C 5,5 C 5,7 C 91 % 9 % 1009 hPa 0,0 l/m 24,8 km/h (4 Bft) 0 min
16.05.2012 09:02 21,2 C 5,5 C 5,7 C 91 % 10 % 1009 hPa 0,0 l/m 23,3 km/h (4 Bft) 0 min
16.05.2012 09:05 21,2 C 5,5 C 5,6 C 91 % 12 % 1009 hPa 0,0 l/m 22,2 km/h (4 Bft) 0 min
16.05.2012 09:08 21,2 C 5,5 C 5,7 C 90 % 17 % 1009 hPa 0,0 l/m 21,4 km/h (4 Bft) 0 min
16.05.2012 09:11 21,2 C 5,5 C 5,8 C 90 % 16 % 1009 hPa 0,0 l/m 21,4 km/h (4 Bft) 0 min
16.05.2012 09:14 21,2 C 5,5 C 6,0 C 90 % 16 % 1009 hPa 0,0 l/m 21,6 km/h (4 Bft) 0 min
16.05.2012 09:17 21,2 C 5,6 C 5,9 C 90 % 18 % 1009 hPa 0,0 l/m 18,8 km/h (3 Bft) 0 min
16.05.2012 09:20 21,2 C 5,6 C 6,0 C 90 % 18 % 1009 hPa 0,0 l/m 19,6 km/h (3 Bft) 0 min
16.05.2012 09:23 21,2 C 5,6 C 5,8 C 90 % 20 % 1009 hPa 0,0 l/m 33,3 km/h (5 Bft) 0 min
16.05.2012 09:26 21,2 C 5,5 C 5,8 C 89 % 21 % 1009 hPa 0,0 l/m 19,9 km/h (4 Bft) 0 min
16.05.2012 09:29 21,2 C 5,6 C 5,9 C 89 % 22 % 1009 hPa 0,0 l/m 20,1 km/h (4 Bft) 0 min
16.05.2012 09:32 21,2 C 5,6 C 6,1 C 89 % 19 % 1009 hPa 0,0 l/m 16,7 km/h (3 Bft) 0 min
16.05.2012 09:35 21,2 C 5,6 C 6,1 C 89 % 19 % 1009 hPa 0,0 l/m 25,0 km/h (4 Bft) 0 min
16.05.2012 09:38 21,2 C 5,5 C 5,9 C 88 % 17 % 1009 hPa 0,0 l/m 25,3 km/h (4 Bft) 0 min
16.05.2012 09:41 21,2 C 5,5 C 5,8 C 88 % 16 % 1009 hPa 0,0 l/m 30,8 km/h (5 Bft) 0 min
16.05.2012 09:44 21,2 C 5,5 C 5,8 C 88 % 14 % 1009 hPa 0,0 l/m 25,1 km/h (4 Bft) 0 min
16.05.2012 09:47 21,2 C 5,5 C 5,9 C 89 % 15 % 1010 hPa 0,0 l/m 24,9 km/h (4 Bft) 0 min
16.05.2012 09:50 21,2 C 5,5 C 5,8 C 90 % 14 % 1010 hPa 0,0 l/m 19,6 km/h (3 Bft) 0 min
16.05.2012 09:53 21,2 C 5,5 C 5,7 C 90 % 15 % 1010 hPa 0,0 l/m 18,9 km/h (3 Bft) 0 min
16.05.2012 09:56 21,2 C 5,5 C 5,7 C 90 % 17 % 1010 hPa 0,0 l/m 20,8 km/h (4 Bft) 0 min
16.05.2012 09:59 21,2 C 5,5 C 5,9 C 91 % 22 % 1010 hPa 0,0 l/m 17,4 km/h (3 Bft) 0 min
16.05.2012 10:02 21,2 C 5,5 C 6,1 C 91 % 19 % 1010 hPa 0,0 l/m 19,8 km/h (3 Bft) 0 min
16.05.2012 10:05 21,2 C 5,5 C 6,0 C 91 % 21 % 1010 hPa 0,3 l/m 20,6 km/h (4 Bft) 0 min
16.05.2012 10:08 21,2 C 5,5 C 6,1 C 92 % 22 % 1010 hPa 0,0 l/m 19,2 km/h (3 Bft) 0 min
16.05.2012 10:11 21,2 C 5,6 C 6,0 C 92 % 22 % 1010 hPa 0,0 l/m 22,5 km/h (4 Bft) 0 min
16.05.2012 10:14 21,2 C 5,6 C 6,1 C 92 % 23 % 1010 hPa 0,0 l/m 23,6 km/h (4 Bft) 0 min
16.05.2012 10:17 21,2 C 5,6 C 6,6 C 92 % 26 % 1010 hPa 0,0 l/m 16,2 km/h (3 Bft) 0 min
16.05.2012 10:20 21,2 C 5,6 C 6,4 C 92 % 27 % 1010 hPa 0,0 l/m 20,1 km/h (4 Bft) 0 min
16.05.2012 10:23 21,2 C 5,6 C 6,3 C 92 % 27 % 1010 hPa 0,0 l/m 25,1 km/h (4 Bft) 0 min
16.05.2012 10:26 21,2 C 5,6 C 6,2 C 92 % 24 % 1010 hPa 0,0 l/m 21,7 km/h (4 Bft) 0 min
16.05.2012 10:29 21,2 C 5,6 C 6,2 C 91 % 25 % 1010 hPa 0,0 l/m 31,6 km/h (5 Bft) 0 min
16.05.2012 10:32 21,2 C 5,6 C 6,1 C 91 % 26 % 1010 hPa 0,0 l/m 25,8 km/h (4 Bft) 0 min
16.05.2012 10:35 21,2 C 5,6 C 6,1 C 90 % 29 % 1010 hPa 0,0 l/m 27,7 km/h (4 Bft) 0 min
16.05.2012 10:38 21,2 C 5,6 C 6,4 C 90 % 30 % 1010 hPa 0,0 l/m 23,6 km/h (4 Bft) 0 min
16.05.2012 10:41 21,2 C 5,7 C 6,4 C 91 % 30 % 1010 hPa 0,0 l/m 22,3 km/h (4 Bft) 0 min
16.05.2012 10:44 21,2 C 5,7 C 6,6 C 90 % 37 % 1010 hPa 0,0 l/m 27,0 km/h (4 Bft) 0 min
16.05.2012 10:47 21,2 C 5,7 C 6,4 C 90 % 34 % 1010 hPa 0,0 l/m 28,3 km/h (4 Bft) 0 min
16.05.2012 10:50 21,2 C 5,8 C 6,6 C 90 % 33 % 1010 hPa 0,0 l/m 27,1 km/h (4 Bft) 0 min
16.05.2012 10:53 21,2 C 5,8 C 6,8 C 91 % 33 % 1010 hPa 0,0 l/m 19,5 km/h (3 Bft) 0 min
16.05.2012 10:56 21,1 C 5,9 C 7,0 C 91 % 38 % 1010 hPa 0,0 l/m 25,8 km/h (4 Bft) 0 min
16.05.2012 10:59 21,1 C 5,9 C 6,6 C 90 % 33 % 1010 hPa 0,0 l/m 25,3 km/h (4 Bft) 0 min
16.05.2012 11:02 21,2 C 5,9 C 6,8 C 90 % 39 % 1010 hPa 0,0 l/m 21,5 km/h (4 Bft) 0 min
16.05.2012 11:05 21,2 C 5,9 C 7,2 C 91 % 41 % 1010 hPa 0,0 l/m 19,3 km/h (3 Bft) 0 min
16.05.2012 11:08 21,2 C 6,0 C 7,2 C 91 % 41 % 1010 hPa 0,0 l/m 19,3 km/h (3 Bft) 0 min
16.05.2012 11:11 21,2 C 6,0 C 6,9 C 91 % 31 % 1010 hPa 0,0 l/m 25,6 km/h (4 Bft) 0 min
16.05.2012 11:14 21,2 C 6,0 C 6,9 C 91 % 31 % 1010 hPa 0,0 l/m 16,8 km/h (3 Bft) 0 min
16.05.2012 11:17 21,2 C 6,0 C 6,7 C 91 % 26 % 1010 hPa 0,0 l/m 16,8 km/h (3 Bft) 0 min
16.05.2012 11:20 21,2 C 6,0 C 6,7 C 91 % 23 % 1010 hPa 0,0 l/m 21,2 km/h (4 Bft) 0 min
16.05.2012 11:23 21,2 C 6,0 C 6,9 C 91 % 20 % 1010 hPa 0,0 l/m 15,9 km/h (3 Bft) 0 min
16.05.2012 11:26 21,2 C 6,0 C 6,7 C 91 % 17 % 1010 hPa 0,0 l/m 18,2 km/h (3 Bft) 0 min
16.05.2012 11:29 21,2 C 6,0 C 6,6 C 91 % 17 % 1010 hPa 0,0 l/m 15,6 km/h (3 Bft) 0 min
16.05.2012 11:32 21,1 C 6,0 C 6,7 C 91 % 21 % 1010 hPa 0,0 l/m 18,5 km/h (3 Bft) 0 min
16.05.2012 11:35 21,2 C 6,0 C 6,7 C 92 % 21 % 1010 hPa 0,0 l/m 21,8 km/h (4 Bft) 0 min
16.05.2012 11:38 21,1 C 6,0 C 6,6 C 91 % 21 % 1010 hPa 0,0 l/m 19,3 km/h (3 Bft) 0 min
16.05.2012 11:41 21,1 C 6,0 C 6,7 C 91 % 16 % 1010 hPa 0,0 l/m 13,8 km/h (3 Bft) 0 min
16.05.2012 11:44 21,1 C 6,0 C 6,7 C 91 % 15 % 1010 hPa 0,0 l/m 17,8 km/h (3 Bft) 0 min
16.05.2012 11:47 21,1 C 6,0 C 6,5 C 91 % 16 % 1010 hPa 0,0 l/m 20,9 km/h (4 Bft) 0 min
16.05.2012 11:50 21,2 C 6,0 C 6,5 C 91 % 20 % 1010 hPa 0,0 l/m 19,3 km/h (3 Bft) 0 min
16.05.2012 11:53 21,1 C 6,0 C 6,8 C 91 % 22 % 1010 hPa 0,0 l/m 18,1 km/h (3 Bft) 0 min
16.05.2012 11:56 21,1 C 6,1 C 6,8 C 91 % 21 % 1010 hPa 0,0 l/m 17,0 km/h (3 Bft) 0 min
16.05.2012 11:59 21,1 C 6,1 C 6,8 C 91 % 28 % 1010 hPa 0,0 l/m 18,6 km/h (3 Bft) 0 min
16.05.2012 12:02 21,1 C 6,1 C 6,8 C 90 % 28 % 1010 hPa 0,0 l/m 20,0 km/h (4 Bft) 0 min
16.05.2012 12:05 21,1 C 6,1 C 6,9 C 90 % 28 % 1010 hPa 0,0 l/m 14,8 km/h (3 Bft) 0 min
16.05.2012 12:08 21,1 C 6,2 C 7,2 C 90 % 44 % 1010 hPa 0,0 l/m 15,2 km/h (3 Bft) 0 min
16.05.2012 12:11 21,1 C 6,3 C 7,7 C 90 % 44 % 1011 hPa 0,0 l/m 16,6 km/h (3 Bft) 0 min
16.05.2012 12:14 21,1 C 6,3 C 8,5 C 90 % 65 % 1011 hPa 0,0 l/m 15,6 km/h (3 Bft) 3 min
16.05.2012 12:17 21,2 C 6,5 C 8,6 C 90 % 65 % 1010 hPa 0,0 l/m 19,2 km/h (3 Bft) 3 min
16.05.2012 12:20 21,1 C 6,7 C 8,6 C 90 % 51 % 1010 hPa 0,0 l/m 22,6 km/h (4 Bft) 0 min
16.05.2012 12:23 21,2 C 6,8 C 8,3 C 89 % 51 % 1010 hPa 0,0 l/m 25,1 km/h (4 Bft) 0 min
16.05.2012 12:26 21,1 C 6,8 C 8,3 C 88 % 47 % 1010 hPa 0,0 l/m 21,1 km/h (4 Bft) 0 min
16.05.2012 12:29 21,1 C 6,8 C 8,1 C 88 % 47 % 1010 hPa 0,0 l/m 16,6 km/h (3 Bft) 0 min
16.05.2012 12:32 21,1 C 6,8 C 7,5 C 88 % 47 % 1010 hPa 0,0 l/m 16,0 km/h (3 Bft) 0 min
16.05.2012 12:35 21,1 C 6,8 C 7,4 C 88 % 26 % 1010 hPa 0,0 l/m 22,1 km/h (4 Bft) 0 min
16.05.2012 12:38 21,1 C 6,7 C 7,4 C 86 % 25 % 1010 hPa 0,0 l/m 20,4 km/h (4 Bft) 0 min
16.05.2012 12:41 21,1 C 6,7 C 7,6 C 87 % 25 % 1010 hPa 0,0 l/m 15,9 km/h (3 Bft) 0 min
16.05.2012 12:44 21,1 C 6,8 C 8,0 C 87 % 40 % 1010 hPa 0,0 l/m 19,5 km/h (3 Bft) 0 min
16.05.2012 12:47 21,1 C 6,8 C 8,3 C 86 % 42 % 1011 hPa 0,0 l/m 23,0 km/h (4 Bft) 0 min
16.05.2012 12:50 21,1 C 6,8 C 8,2 C 86 % 44 % 1011 hPa 0,0 l/m 23,0 km/h (4 Bft) 0 min
16.05.2012 12:53 21,1 C 6,9 C 8,1 C 87 % 44 % 1011 hPa 0,0 l/m 19,8 km/h (3 Bft) 0 min
16.05.2012 12:56 21,1 C 6,9 C 8,2 C 87 % 27 % 1011 hPa 0,0 l/m 14,4 km/h (3 Bft) 0 min
16.05.2012 12:59 21,1 C 6,9 C 8,0 C 87 % 24 % 1011 hPa 0,0 l/m 20,3 km/h (4 Bft) 0 min
16.05.2012 13:02 21,1 C 7,0 C 7,9 C 87 % 24 % 1011 hPa 0,0 l/m 16,8 km/h (3 Bft) 0 min
16.05.2012 13:05 21,1 C 7,0 C 8,0 C 87 % 29 % 1011 hPa 0,0 l/m 16,3 km/h (3 Bft) 0 min
16.05.2012 13:08 21,1 C 7,0 C 8,2 C 88 % 29 % 1011 hPa 0,0 l/m 15,6 km/h (3 Bft) 0 min
16.05.2012 13:11 21,1 C 7,1 C 8,3 C 87 % 40 % 1011 hPa 0,0 l/m 16,1 km/h (3 Bft) 0 min
16.05.2012 13:14 21,1 C 7,2 C 8,8 C 87 % 40 % 1011 hPa 0,0 l/m 16,5 km/h (3 Bft) 0 min
16.05.2012 13:17 21,1 C 7,3 C 8,9 C 87 % 58 % 1011 hPa 0,0 l/m 18,3 km/h (3 Bft) 3 min
16.05.2012 13:20 21,1 C 7,4 C 9,2 C 87 % 53 % 1011 hPa 0,0 l/m 17,2 km/h (3 Bft) 3 min
16.05.2012 13:23 21,1 C 7,5 C 9,0 C 86 % 49 % 1011 hPa 0,0 l/m 21,7 km/h (4 Bft) 0 min
16.05.2012 13:26 21,1 C 7,5 C 9,4 C 86 % 54 % 1011 hPa 0,0 l/m 22,0 km/h (4 Bft) 3 min
16.05.2012 13:29 21,1 C 7,6 C 9,5 C 86 % 54 % 1011 hPa 0,0 l/m 14,5 km/h (3 Bft) 3 min
16.05.2012 13:32 21,1 C 7,6 C 8,8 C 84 % 32 % 1011 hPa 0,0 l/m 14,5 km/h (3 Bft) 0 min
16.05.2012 13:35 21,1 C 7,5 C 8,5 C 83 % 27 % 1011 hPa 0,0 l/m 17,0 km/h (3 Bft) 0 min
16.05.2012 13:38 21,1 C 7,5 C 8,2 C 83 % 21 % 1011 hPa 0,0 l/m 17,0 km/h (3 Bft) 0 min
16.05.2012 13:41 21,1 C 7,5 C 8,1 C 83 % 21 % 1011 hPa 0,0 l/m 22,8 km/h (4 Bft) 0 min
16.05.2012 13:44 21,1 C 7,5 C 8,4 C 83 % 41 % 1011 hPa 0,0 l/m 25,8 km/h (4 Bft) 0 min
16.05.2012 13:47 21,1 C 7,6 C 8,4 C 83 % 41 % 1011 hPa 0,0 l/m 21,4 km/h (4 Bft) 0 min
16.05.2012 13:50 21,1 C 7,6 C 8,8 C 83 % 26 % 1011 hPa 0,0 l/m 18,7 km/h (3 Bft) 0 min
16.05.2012 13:53 21,1 C 7,6 C 8,4 C 82 % 26 % 1011 hPa 0,0 l/m 25,8 km/h (4 Bft) 0 min
16.05.2012 13:56 21,1 C 7,6 C 8,6 C 83 % 26 % 1011 hPa 0,0 l/m 18,8 km/h (3 Bft) 0 min
16.05.2012 13:59 21,1 C 7,7 C 9,0 C 84 % 48 % 1011 hPa 0,0 l/m 15,3 km/h (3 Bft) 0 min
16.05.2012 14:02 21,1 C 7,8 C 9,4 C 83 % 48 % 1011 hPa 0,0 l/m 19,7 km/h (3 Bft) 0 min
16.05.2012 14:05 21,0 C 7,8 C 9,8 C 82 % 75 % 1011 hPa 0,0 l/m 20,3 km/h (4 Bft) 3 min
16.05.2012 14:08 21,1 C 8,0 C 10,1 C 83 % 78 % 1011 hPa 0,0 l/m 20,2 km/h (4 Bft) 3 min
16.05.2012 14:11 21,1 C 8,2 C 10,4 C 84 % 78 % 1011 hPa 0,0 l/m 19,3 km/h (3 Bft) 3 min
16.05.2012 14:14 21,1 C 8,3 C 10,5 C 83 % 78 % 1011 hPa 0,0 l/m 20,9 km/h (4 Bft) 3 min
16.05.2012 14:17 21,1 C 8,4 C 10,1 C 82 % 44 % 1011 hPa 0,0 l/m 16,0 km/h (3 Bft) 0 min
16.05.2012 14:20 21,1 C 8,4 C 10,1 C 81 % 44 % 1011 hPa 0,0 l/m 23,3 km/h (4 Bft) 0 min
16.05.2012 14:23 21,1 C 8,4 C 10,0 C 81 % 44 % 1011 hPa 0,0 l/m 16,8 km/h (3 Bft) 0 min
16.05.2012 14:26 21,0 C 8,4 C 10,0 C 80 % 43 % 1011 hPa 0,0 l/m 14,6 km/h (3 Bft) 0 min
16.05.2012 14:29 21,0 C 8,5 C 10,2 C 80 % 39 % 1011 hPa 0,0 l/m 7,9 km/h (2 Bft) 0 min
16.05.2012 14:32 21,1 C 8,6 C 10,3 C 81 % 39 % 1011 hPa 0,0 l/m 11,8 km/h (2 Bft) 0 min
16.05.2012 14:35 21,1 C 8,6 C 10,4 C 80 % 60 % 1011 hPa 0,0 l/m 13,3 km/h (3 Bft) 3 min
16.05.2012 14:38 21,0 C 8,7 C 10,6 C 80 % 60 % 1011 hPa 0,0 l/m 12,7 km/h (3 Bft) 3 min
16.05.2012 14:41 21,0 C 8,8 C 10,8 C 79 % 60 % 1011 hPa 0,0 l/m 10,1 km/h (2 Bft) 3 min
16.05.2012 14:44 21,0 C 8,8 C 10,8 C 79 % 47 % 1011 hPa 0,0 l/m 10,1 km/h (2 Bft) 0 min
16.05.2012 14:47 21,1 C 8,9 C 11,2 C 78 % 47 % 1011 hPa 0,0 l/m 13,6 km/h (3 Bft) 0 min
16.05.2012 14:50 21,0 C 9,0 C 11,0 C 77 % 52 % 1011 hPa 0,0 l/m 16,4 km/h (3 Bft) 0 min
16.05.2012 14:53 21,1 C 9,0 C 10,5 C 75 % 52 % 1010 hPa 0,0 l/m 24,6 km/h (4 Bft) 0 min
16.05.2012 14:56 21,0 C 9,0 C 10,0 C 74 % 28 % 1010 hPa 0,0 l/m 20,3 km/h (4 Bft) 0 min
16.05.2012 14:59 21,0 C 9,0 C 9,4 C 73 % 28 % 1011 hPa 0,0 l/m 19,1 km/h (3 Bft) 0 min
16.05.2012 15:02 21,0 C 8,9 C 9,0 C 73 % 16 % 1011 hPa 0,0 l/m 20,4 km/h (4 Bft) 0 min
16.05.2012 15:05 21,0 C 8,8 C 9,3 C 73 % 14 % 1011 hPa 0,0 l/m 13,8 km/h (3 Bft) 0 min
16.05.2012 15:08 21,0 C 8,8 C 9,0 C 74 % 12 % 1011 hPa 0,0 l/m 13,8 km/h (3 Bft) 0 min
16.05.2012 15:11 21,0 C 8,7 C 8,8 C 76 % 10 % 1011 hPa 0,0 l/m 1,3 km/h (1 Bft) 0 min
16.05.2012 15:14 21,0 C 8,6 C 8,6 C 77 % 10 % 1011 hPa 0,3 l/m 3,6 km/h (1 Bft) 0 min
16.05.2012 15:17 21,0 C 8,5 C 8,6 C 78 % 9 % 1011 hPa 0,3 l/m 0,8 km/h (0 Bft) 0 min
16.05.2012 15:20 21,0 C 8,3 C 7,3 C 80 % 10 % 1011 hPa 1,0 l/m 0,8 km/h (0 Bft) 0 min
16.05.2012 15:23 21,0 C 8,1 C 6,7 C 80 % 12 % 1011 hPa 0,7 l/m 0,1 km/h (0 Bft) 0 min
16.05.2012 15:26 21,1 C 7,8 C 7,5 C 80 % 10 % 1011 hPa 0,3 l/m 0,0 km/h (0 Bft) 0 min
16.05.2012 15:29 21,1 C 7,5 C 7,8 C 82 % 13 % 1011 hPa 0,3 l/m 0,3 km/h (0 Bft) 0 min
16.05.2012 15:32 21,1 C 7,4 C 7,6 C 83 % 15 % 1011 hPa 0,3 l/m 3,0 km/h (1 Bft) 0 min
16.05.2012 15:35 21,1 C 7,3 C 7,6 C 85 % 16 % 1011 hPa 0,3 l/m 9,0 km/h (2 Bft) 0 min
16.05.2012 15:38 21,2 C 7,3 C 7,0 C 85 % 16 % 1011 hPa 0,0 l/m 18,8 km/h (3 Bft) 0 min
16.05.2012 15:41 21,2 C 7,2 C 7,6 C 84 % 16 % 1011 hPa 0,0 l/m 4,7 km/h (1 Bft) 0 min
16.05.2012 15:43 21,3 C 7,3 C 7,6 C 85 % 30 % 1011 hPa 0,0 l/m 15,1 km/h (3 Bft) 0 min
16.05.2012 15:47 21,3 C 7,3 C 7,6 C 86 % 30 % 1011 hPa 0,0 l/m 16,0 km/h (3 Bft) 0 min
16.05.2012 15:50 21,3 C 7,3 C 8,0 C 87 % 35 % 1011 hPa 0,0 l/m 11,0 km/h (2 Bft) 0 min
16.05.2012 15:53 21,3 C 7,4 C 8,0 C 88 % 40 % 1011 hPa 0,0 l/m 11,0 km/h (2 Bft) 0 min
16.05.2012 15:56 21,2 C 7,5 C 8,2 C 88 % 40 % 1011 hPa 0,0 l/m 16,1 km/h (3 Bft) 0 min
16.05.2012 15:59 21,2 C 7,5 C 9,4 C 89 % 79 % 1011 hPa 0,0 l/m 14,0 km/h (3 Bft) 3 min
16.05.2012 16:02 21,2 C 7,6 C 10,0 C 90 % 79 % 1011 hPa 0,0 l/m 15,6 km/h (3 Bft) 3 min
16.05.2012 16:05 21,2 C 7,7 C 10,6 C 90 % 79 % 1011 hPa 0,0 l/m 20,1 km/h (4 Bft) 3 min
16.05.2012 16:08 21,3 C 7,8 C 10,6 C 90 % 79 % 1011 hPa 0,0 l/m 19,8 km/h (3 Bft) 3 min
16.05.2012 16:11 21,3 C 8,0 C 11,9 C 90 % 79 % 1011 hPa 0,0 l/m 20,0 km/h (4 Bft) 3 min
16.05.2012 16:14 21,3 C 8,0 C 12,5 C 90 % 79 % 1011 hPa 0,0 l/m 15,5 km/h (3 Bft) 3 min
16.05.2012 16:17 21,2 C 8,3 C 14,1 C 89 % 79 % 1011 hPa 0,0 l/m 19,1 km/h (3 Bft) 3 min
16.05.2012 16:20 21,3 C 8,5 C 13,5 C 89 % 79 % 1011 hPa 0,0 l/m 25,8 km/h (4 Bft) 3 min
16.05.2012 16:23 21,3 C 8,5 C 13,4 C 89 % 79 % 1011 hPa 0,0 l/m 28,8 km/h (4 Bft) 3 min
16.05.2012 16:26 21,2 C 8,8 C 13,2 C 88 % 79 % 1011 hPa 0,0 l/m 25,2 km/h (4 Bft) 3 min
16.05.2012 16:29 21,2 C 8,9 C 13,1 C 87 % 79 % 1011 hPa 0,0 l/m 28,5 km/h (4 Bft) 3 min
16.05.2012 16:32 21,3 C 9,0 C 12,9 C 86 % 79 % 1011 hPa 0,0 l/m 26,3 km/h (4 Bft) 3 min
16.05.2012 16:35 21,3 C 8,9 C 10,5 C 84 % 47 % 1011 hPa 0,0 l/m 39,4 km/h (6 Bft) 0 min
16.05.2012 16:38 21,2 C 8,8 C 11,4 C 84 % 47 % 1011 hPa 0,0 l/m 38,1 km/h (5 Bft) 0 min
16.05.2012 16:41 21,3 C 8,4 C 9,3 C 81 % 42 % 1011 hPa 0,0 l/m 42,7 km/h (6 Bft) 0 min
16.05.2012 16:44 21,3 C 8,4 C 8,3 C 81 % 42 % 1011 hPa 0,0 l/m 35,3 km/h (5 Bft) 0 min
16.05.2012 16:47 21,3 C 7,8 C 8,0 C 82 % 31 % 1011 hPa 0,0 l/m 32,2 km/h (5 Bft) 0 min
16.05.2012 16:50 21,3 C 7,8 C 8,0 C 82 % 31 % 1011 hPa 0,0 l/m 27,3 km/h (4 Bft) 0 min
16.05.2012 16:53 21,3 C 7,6 C 7,7 C 84 % 24 % 1011 hPa 0,0 l/m 26,0 km/h (4 Bft) 0 min
16.05.2012 16:56 21,3 C 7,5 C 7,6 C 84 % 24 % 1012 hPa 0,0 l/m 20,3 km/h (4 Bft) 0 min
16.05.2012 16:59 21,2 C 7,4 C 7,7 C 85 % 25 % 1012 hPa 0,0 l/m 15,8 km/h (3 Bft) 0 min
16.05.2012 17:02 21,2 C 7,4 C 7,6 C 85 % 30 % 1012 hPa 0,0 l/m 28,2 km/h (4 Bft) 0 min
16.05.2012 17:05 21,2 C 7,3 C 7,6 C 85 % 35 % 1012 hPa 0,0 l/m 21,8 km/h (4 Bft) 0 min
16.05.2012 17:08 21,2 C 7,4 C 8,2 C 85 % 40 % 1011 hPa 0,0 l/m 14,5 km/h (3 Bft) 0 min
16.05.2012 17:11 21,2 C 7,4 C 8,2 C 85 % 45 % 1011 hPa 0,0 l/m 17,3 km/h (3 Bft) 0 min
16.05.2012 17:14 21,1 C 7,5 C 8,8 C 84 % 46 % 1011 hPa 0,0 l/m 16,1 km/h (3 Bft) 0 min
16.05.2012 17:17 21,1 C 7,5 C 9,1 C 85 % 50 % 1011 hPa 0,0 l/m 16,1 km/h (3 Bft) 0 min
16.05.2012 17:20 21,1 C 7,6 C 9,1 C 84 % 49 % 1011 hPa 0,0 l/m 16,0 km/h (3 Bft) 3 min
16.05.2012 17:23 21,0 C 7,7 C 9,2 C 84 % 53 % 1011 hPa 0,0 l/m 17,0 km/h (3 Bft) 3 min
16.05.2012 17:26 21,0 C 7,8 C 9,5 C 82 % 53 % 1011 hPa 0,0 l/m 17,8 km/h (3 Bft) 3 min
16.05.2012 17:29 21,0 C 7,9 C 9,9 C 81 % 53 % 1011 hPa 0,0 l/m 19,3 km/h (3 Bft) 3 min
16.05.2012 17:32 20,9 C 8,0 C 10,4 C 80 % 68 % 1011 hPa 0,0 l/m 18,6 km/h (3 Bft) 3 min
16.05.2012 17:35 20,9 C 8,1 C 11,0 C 81 % 68 % 1011 hPa 0,0 l/m 16,8 km/h (3 Bft) 3 min
16.05.2012 17:38 20,9 C 8,2 C 11,1 C 80 % 87 % 1011 hPa 0,0 l/m 18,2 km/h (3 Bft) 3 min
16.05.2012 17:41 20,9 C 8,4 C 11,2 C 81 % 83 % 1011 hPa 0,0 l/m 20,0 km/h (4 Bft) 3 min
16.05.2012 17:44 20,9 C 8,6 C 11,1 C 79 % 79 % 1011 hPa 0,0 l/m 22,6 km/h (4 Bft) 3 min
16.05.2012 17:47 21,0 C 8,6 C 11,0 C 79 % 75 % 1012 hPa 0,0 l/m 23,6 km/h (4 Bft) 3 min
16.05.2012 17:50 21,0 C 8,7 C 10,6 C 77 % 75 % 1012 hPa 0,0 l/m 24,1 km/h (4 Bft) 3 min
16.05.2012 17:53 21,0 C 8,7 C 10,8 C 76 % 61 % 1012 hPa 0,0 l/m 15,3 km/h (3 Bft) 3 min
16.05.2012 17:56 21,0 C 8,7 C 11,0 C 77 % 60 % 1012 hPa 0,0 l/m 14,8 km/h (3 Bft) 3 min
16.05.2012 17:59 21,0 C 8,8 C 11,1 C 78 % 61 % 1012 hPa 0,0 l/m 17,3 km/h (3 Bft) 3 min
16.05.2012 18:02 21,0 C 8,9 C 11,0 C 78 % 60 % 1012 hPa 0,0 l/m 20,4 km/h (4 Bft) 3 min
16.05.2012 18:05 21,0 C 9,0 C 10,9 C 78 % 58 % 1012 hPa 0,0 l/m 21,8 km/h (4 Bft) 3 min
16.05.2012 18:08 21,0 C 9,1 C 10,6 C 78 % 55 % 1012 hPa 0,0 l/m 22,5 km/h (4 Bft) 3 min
16.05.2012 18:11 21,0 C 9,1 C 11,0 C 78 % 55 % 1012 hPa 0,0 l/m 20,5 km/h (4 Bft) 3 min
16.05.2012 18:14 21,0 C 9,1 C 10,3 C 78 % 27 % 1012 hPa 0,0 l/m 20,5 km/h (4 Bft) 0 min
16.05.2012 18:17 21,0 C 9,1 C 10,0 C 78 % 27 % 1012 hPa 0,0 l/m 17,3 km/h (3 Bft) 0 min
16.05.2012 18:20 21,1 C 9,1 C 9,7 C 78 % 24 % 1012 hPa 0,0 l/m 14,6 km/h (3 Bft) 0 min
16.05.2012 18:23 21,1 C 9,1 C 10,1 C 78 % 24 % 1012 hPa 0,0 l/m 5,6 km/h (1 Bft) 0 min
16.05.2012 18:26 21,2 C 9,1 C 10,2 C 79 % 24 % 1012 hPa 0,0 l/m 2,6 km/h (1 Bft) 0 min
16.05.2012 18:29 21,2 C 9,0 C 10,0 C 80 % 10 % 1012 hPa 0,0 l/m 1,1 km/h (1 Bft) 0 min
16.05.2012 18:32 21,2 C 8,8 C 9,8 C 80 % 11 % 1012 hPa 0,0 l/m 1,4 km/h (1 Bft) 0 min
16.05.2012 18:35 21,2 C 8,8 C 9,4 C 81 % 10 % 1012 hPa 0,0 l/m 0,5 km/h (0 Bft) 0 min
16.05.2012 18:38 21,2 C 8,7 C 9,1 C 82 % 8 % 1012 hPa 0,0 l/m 1,1 km/h (1 Bft) 0 min
16.05.2012 18:41 21,2 C 8,6 C 8,9 C 83 % 8 % 1012 hPa 0,3 l/m 1,2 km/h (1 Bft) 0 min
16.05.2012 18:44 21,2 C 8,3 C 8,7 C 83 % 6 % 1012 hPa 0,3 l/m 1,1 km/h (1 Bft) 0 min
16.05.2012 18:47 21,2 C 8,1 C 8,5 C 84 % 5 % 1012 hPa 0,3 l/m 6,0 km/h (2 Bft) 0 min
16.05.2012 18:50 21,2 C 7,8 C 7,7 C 84 % 5 % 1012 hPa 0,3 l/m 1,2 km/h (1 Bft) 0 min
16.05.2012 18:53 21,3 C 7,6 C 5,4 C 84 % 5 % 1012 hPa 0,0 l/m 0,6 km/h (0 Bft) 0 min
16.05.2012 18:56 21,2 C 7,2 C 4,0 C 84 % 9 % 1012 hPa 0,0 l/m 0,6 km/h (0 Bft) 0 min
16.05.2012 18:59 21,3 C 7,0 C 3,9 C 84 % 13 % 1012 hPa 0,0 l/m 0,0 km/h (0 Bft) 0 min
16.05.2012 19:02 21,2 C 6,8 C 4,2 C 84 % 13 % 1012 hPa 0,3 l/m 0,0 km/h (0 Bft) 0 min
16.05.2012 19:05 21,2 C 6,7 C 4,9 C 85 % 25 % 1012 hPa 0,0 l/m 0,0 km/h (0 Bft) 0 min
16.05.2012 19:08 21,2 C 6,7 C 5,3 C 85 % 25 % 1012 hPa 0,0 l/m 0,1 km/h (0 Bft) 0 min
16.05.2012 19:11 21,2 C 6,7 C 5,5 C 87 % 24 % 1013 hPa 0,0 l/m 0,3 km/h (0 Bft) 0 min
16.05.2012 19:14 21,2 C 6,7 C 5,7 C 87 % 23 % 1013 hPa 0,0 l/m 0,1 km/h (0 Bft) 0 min
16.05.2012 19:17 21,2 C 6,7 C 5,9 C 87 % 22 % 1013 hPa 0,3 l/m 1,1 km/h (1 Bft) 0 min
16.05.2012 19:20 21,2 C 6,6 C 6,1 C 87 % 22 % 1013 hPa 0,0 l/m 1,1 km/h (1 Bft) 0 min
16.05.2012 19:23 21,2 C 6,6 C 6,3 C 87 % 23 % 1013 hPa 0,0 l/m 0,0 km/h (0 Bft) 0 min
16.05.2012 19:26 21,2 C 6,7 C 6,4 C 88 % 21 % 1013 hPa 0,0 l/m 0,0 km/h (0 Bft) 0 min
16.05.2012 19:29 21,2 C 6,7 C 6,6 C 88 % 21 % 1013 hPa 0,0 l/m 0,0 km/h (0 Bft) 0 min
16.05.2012 19:32 21,2 C 6,8 C 7,5 C 88 % 21 % 1013 hPa 0,0 l/m 0,0 km/h (0 Bft) 3 min
16.05.2012 19:35 21,2 C 6,8 C 7,8 C 88 % 26 % 1013 hPa 0,3 l/m 0,0 km/h (0 Bft) 3 min
16.05.2012 19:38 21,1 C 6,8 C 8,2 C 89 % 21 % 1013 hPa 0,0 l/m 0,9 km/h (0 Bft) 3 min
16.05.2012 19:41 21,2 C 6,8 C 7,9 C 89 % 19 % 1013 hPa 0,0 l/m 0,0 km/h (0 Bft) 3 min
16.05.2012 19:44 21,2 C 6,8 C 7,6 C 89 % 17 % 1013 hPa 0,0 l/m 0,1 km/h (0 Bft) 0 min
16.05.2012 19:47 21,1 C 6,7 C 7,6 C 89 % 15 % 1013 hPa 0,0 l/m 0,0 km/h (0 Bft) 0 min
16.05.2012 19:50 21,1 C 6,7 C 7,1 C 89 % 12 % 1013 hPa 0,0 l/m 0,0 km/h (0 Bft) 0 min
16.05.2012 19:53 21,2 C 6,7 C 6,9 C 89 % 9 % 1013 hPa 0,0 l/m 0,0 km/h (0 Bft) 0 min
16.05.2012 19:56 21,2 C 6,7 C 6,6 C 89 % 8 % 1013 hPa 0,0 l/m 0,0 km/h (0 Bft) 0 min
16.05.2012 19:59 21,2 C 6,7 C 6,6 C 89 % 7 % 1013 hPa 0,0 l/m 0,0 km/h (0 Bft) 0 min
16.05.2012 20:02 21,2 C 6,6 C 6,5 C 89 % 4 % 1013 hPa 0,3 l/m 0,0 km/h (0 Bft) 0 min
16.05.2012 20:05 21,2 C 6,6 C 6,6 C 89 % 2 % 1013 hPa 0,0 l/m 0,0 km/h (0 Bft) 0 min
16.05.2012 20:08 21,2 C 6,6 C 6,7 C 89 % 1 % 1013 hPa 0,0 l/m 0,0 km/h (0 Bft) 0 min
16.05.2012 20:11 21,2 C 6,6 C 6,7 C 89 % 0 % 1013 hPa 0,0 l/m 2,7 km/h (1 Bft) 0 min
16.05.2012 20:14 21,2 C 6,6 C 6,7 C 89 % 1 % 1013 hPa 0,0 l/m 12,8 km/h (3 Bft) 0 min
16.05.2012 20:17 21,2 C 6,5 C 6,5 C 91 % 1 % 1014 hPa 0,7 l/m 12,8 km/h (3 Bft) 0 min
16.05.2012 20:20 21,2 C 6,5 C 6,7 C 92 % 1 % 1014 hPa 0,3 l/m 14,2 km/h (3 Bft) 0 min
16.05.2012 20:23 21,2 C 6,5 C 6,7 C 92 % 3 % 1014 hPa 0,0 l/m 0,4 km/h (0 Bft) 0 min
16.05.2012 20:26 21,1 C 6,5 C 7,5 C 92 % 3 % 1014 hPa 0,0 l/m 0,0 km/h (0 Bft) 0 min
16.05.2012 20:29 21,1 C 6,5 C 7,2 C 92 % 3 % 1014 hPa 0,0 l/m 0,0 km/h (0 Bft) 3 min
16.05.2012 20:32 21,1 C 6,4 C 6,9 C 92 % 2 % 1013 hPa 0,0 l/m 0,6 km/h (0 Bft) 0 min
16.05.2012 20:35 21,2 C 6,4 C 6,8 C 92 % 2 % 1013 hPa 0,3 l/m 7,3 km/h (2 Bft) 0 min
16.05.2012 20:38 21,2 C 6,4 C 6,9 C 91 % 2 % 1013 hPa 0,0 l/m 3,5 km/h (1 Bft) 0 min
16.05.2012 20:41 21,2 C 6,4 C 6,9 C 91 % 1 % 1013 hPa 0,0 l/m 4,4 km/h (1 Bft) 0 min
16.05.2012 20:44 21,2 C 6,4 C 6,8 C 92 % 1 % 1013 hPa 0,0 l/m 2,3 km/h (1 Bft) 0 min
16.05.2012 20:47 21,1 C 6,3 C 6,8 C 92 % 1 % 1013 hPa 0,0 l/m 3,7 km/h (1 Bft) 0 min
16.05.2012 20:50 21,2 C 6,3 C 6,8 C 92 % 0 % 1013 hPa 0,0 l/m 2,3 km/h (1 Bft) 0 min
16.05.2012 20:53 21,1 C 6,3 C 6,7 C 93 % 0 % 1014 hPa 0,0 l/m 2,3 km/h (1 Bft) 0 min
16.05.2012 20:56 21,1 C 6,3 C 6,7 C 93 % 0 % 1014 hPa 0,0 l/m 2,9 km/h (1 Bft) 0 min
16.05.2012 20:59 21,1 C 6,3 C 7,1 C 93 % 0 % 1014 hPa 0,0 l/m 2,8 km/h (1 Bft) 0 min
16.05.2012 21:02 21,1 C 6,3 C 7,2 C 93 % 0 % 1014 hPa 0,0 l/m 1,0 km/h (0 Bft) 0 min
16.05.2012 21:05 21,1 C 6,3 C 7,2 C 93 % 0 % 1014 hPa 0,0 l/m 1,0 km/h (0 Bft) 0 min
16.05.2012 21:08 21,1 C 6,2 C 7,0 C 93 % 0 % 1014 hPa 0,0 l/m 0,0 km/h (0 Bft) 0 min
16.05.2012 21:11 21,1 C 6,2 C 7,4 C 93 % 0 % 1014 hPa 0,0 l/m 0,0 km/h (0 Bft) 0 min
16.05.2012 21:14 21,1 C 6,2 C 7,6 C 93 % 0 % 1014 hPa 0,0 l/m 0,0 km/h (0 Bft) 0 min
16.05.2012 21:17 21,1 C 6,2 C 7,3 C 93 % 0 % 1014 hPa 0,0 l/m 0,0 km/h (0 Bft) 0 min
16.05.2012 21:20 21,1 C 6,2 C 6,8 C 93 % 0 % 1014 hPa 0,0 l/m 0,0 km/h (0 Bft) 0 min
16.05.2012 21:23 21,0 C 6,1 C 6,7 C 93 % 0 % 1014 hPa 0,0 l/m 0,0 km/h (0 Bft) 0 min
16.05.2012 21:26 21,1 C 6,1 C 7,1 C 93 % 0 % 1014 hPa 0,0 l/m 0,0 km/h (0 Bft) 0 min
16.05.2012 21:29 21,1 C 6,1 C 7,0 C 93 % 0 % 1014 hPa 0,0 l/m 0,0 km/h (0 Bft) 0 min
16.05.2012 21:32 21,1 C 6,1 C 7,0 C 93 % 0 % 1014 hPa 0,0 l/m 0,0 km/h (0 Bft) 0 min
16.05.2012 21:35 21,0 C 6,0 C 6,4 C 92 % 0 % 1014 hPa 0,0 l/m 0,0 km/h (0 Bft) 0 min
16.05.2012 21:38 21,0 C 6,0 C 6,6 C 92 % 0 % 1014 hPa 0,0 l/m 0,0 km/h (0 Bft) 0 min
16.05.2012 21:41 21,1 C 6,0 C 6,6 C 92 % 0 % 1014 hPa 0,0 l/m 0,0 km/h (0 Bft) 0 min
16.05.2012 21:44 21,1 C 6,0 C 6,9 C 92 % 0 % 1014 hPa 0,0 l/m 0,6 km/h (0 Bft) 0 min
16.05.2012 21:47 21,0 C 5,9 C 6,7 C 93 % 0 % 1014 hPa 0,0 l/m 0,2 km/h (0 Bft) 0 min
16.05.2012 21:50 21,0 C 5,9 C 6,7 C 93 % 0 % 1014 hPa 0,0 l/m 0,0 km/h (0 Bft) 0 min
16.05.2012 21:53 21,0 C 5,9 C 6,5 C 93 % 0 % 1014 hPa 0,0 l/m 0,7 km/h (0 Bft) 0 min
16.05.2012 21:56 21,1 C 5,8 C 6,6 C 93 % 0 % 1015 hPa 0,0 l/m 3,2 km/h (1 Bft) 0 min
16.05.2012 21:59 21,0 C 5,7 C 6,3 C 93 % 0 % 1014 hPa 0,0 l/m 3,9 km/h (1 Bft) 0 min
16.05.2012 22:02 21,0 C 5,7 C 6,2 C 93 % 0 % 1015 hPa 0,0 l/m 4,7 km/h (1 Bft) 0 min
16.05.2012 22:05 21,0 C 5,7 C 6,2 C 94 % 0 % 1015 hPa 0,0 l/m 1,5 km/h (1 Bft) 0 min
16.05.2012 22:08 21,0 C 5,7 C 6,3 C 94 % 0 % 1015 hPa 0,0 l/m 1,9 km/h (1 Bft) 0 min
16.05.2012 22:11 21,0 C 5,6 C 6,1 C 93 % 0 % 1015 hPa 0,0 l/m 3,4 km/h (1 Bft) 0 min
16.05.2012 22:14 21,0 C 5,6 C 6,2 C 94 % 0 % 1015 hPa 0,0 l/m 0,2 km/h (0 Bft) 0 min
16.05.2012 22:17 21,0 C 5,6 C 6,2 C 94 % 0 % 1015 hPa 0,0 l/m 0,9 km/h (0 Bft) 0 min
16.05.2012 22:20 21,0 C 5,5 C 6,1 C 94 % 0 % 1015 hPa 0,0 l/m 1,8 km/h (1 Bft) 0 min
16.05.2012 22:23 21,0 C 5,5 C 6,1 C 94 % 0 % 1015 hPa 0,0 l/m 2,3 km/h (1 Bft) 0 min
16.05.2012 22:26 21,0 C 5,5 C 6,3 C 94 % 0 % 1015 hPa 0,0 l/m 2,7 km/h (1 Bft) 0 min
16.05.2012 22:29 21,0 C 5,5 C 6,3 C 94 % 0 % 1015 hPa 0,0 l/m 2,7 km/h (1 Bft) 0 min
16.05.2012 22:32 21,0 C 5,5 C 6,3 C 94 % 0 % 1015 hPa 0,0 l/m 0,3 km/h (0 Bft) 0 min
16.05.2012 22:35 21,0 C 5,5 C 6,3 C 94 % 0 % 1015 hPa 0,0 l/m 3,4 km/h (1 Bft) 0 min
16.05.2012 22:38 21,0 C 5,4 C 6,2 C 95 % 0 % 1015 hPa 0,0 l/m 3,4 km/h (1 Bft) 0 min
16.05.2012 22:41 21,0 C 5,4 C 6,1 C 94 % 0 % 1015 hPa 0,0 l/m 2,2 km/h (1 Bft) 0 min
16.05.2012 22:44 21,0 C 5,3 C 6,0 C 95 % 0 % 1015 hPa 0,0 l/m 0,6 km/h (0 Bft) 0 min
16.05.2012 22:47 21,0 C 5,3 C 5,8 C 95 % 0 % 1015 hPa 0,0 l/m 0,3 km/h (0 Bft) 0 min
16.05.2012 22:50 21,0 C 5,3 C 5,8 C 95 % 0 % 1015 hPa 0,0 l/m 5,6 km/h (1 Bft) 0 min
16.05.2012 22:53 21,0 C 5,2 C 6,0 C 95 % 0 % 1015 hPa 0,0 l/m 3,3 km/h (1 Bft) 0 min
16.05.2012 22:56 21,0 C 5,2 C 5,9 C 95 % 0 % 1015 hPa 0,0 l/m 0,7 km/h (0 Bft) 0 min
16.05.2012 22:59 21,0 C 5,2 C 6,0 C 95 % 0 % 1015 hPa 0,0 l/m 0,7 km/h (0 Bft) 0 min
16.05.2012 23:02 21,0 C 5,3 C 6,1 C 95 % 0 % 1015 hPa 0,0 l/m 0,9 km/h (0 Bft) 0 min
16.05.2012 23:05 21,0 C 5,3 C 6,3 C 95 % 0 % 1015 hPa 0,0 l/m 1,9 km/h (1 Bft) 0 min
16.05.2012 23:08 21,0 C 5,3 C 6,3 C 95 % 0 % 1015 hPa 0,0 l/m 0,9 km/h (0 Bft) 0 min
16.05.2012 23:11 21,0 C 5,3 C 6,3 C 95 % 0 % 1015 hPa 0,0 l/m 3,9 km/h (1 Bft) 0 min
16.05.2012 23:14 21,0 C 5,4 C 6,6 C 95 % 0 % 1015 hPa 0,0 l/m 0,7 km/h (0 Bft) 0 min
16.05.2012 23:17 21,0 C 5,4 C 6,3 C 95 % 0 % 1015 hPa 0,0 l/m 0,3 km/h (0 Bft) 0 min
16.05.2012 23:20 21,0 C 5,4 C 6,2 C 95 % 0 % 1015 hPa 0,0 l/m 0,0 km/h (0 Bft) 0 min
16.05.2012 23:23 21,0 C 5,3 C 6,3 C 95 % 0 % 1015 hPa 0,0 l/m 0,1 km/h (0 Bft) 0 min
16.05.2012 23:26 21,0 C 5,3 C 6,4 C 95 % 0 % 1015 hPa 0,0 l/m 1,6 km/h (1 Bft) 0 min
16.05.2012 23:29 21,0 C 5,3 C 6,1 C 95 % 0 % 1015 hPa 0,0 l/m 3,1 km/h (1 Bft) 0 min
16.05.2012 23:32 21,0 C 5,3 C 6,1 C 95 % 0 % 1015 hPa 0,0 l/m 2,4 km/h (1 Bft) 0 min
16.05.2012 23:35 20,9 C 5,3 C 6,2 C 95 % 0 % 1015 hPa 0,0 l/m 0,1 km/h (0 Bft) 0 min
16.05.2012 23:38 21,0 C 5,3 C 6,1 C 95 % 0 % 1015 hPa 0,0 l/m 0,3 km/h (0 Bft) 0 min
16.05.2012 23:41 20,9 C 5,3 C 5,7 C 95 % 0 % 1015 hPa 0,0 l/m 0,1 km/h (0 Bft) 0 min
16.05.2012 23:44 20,9 C 5,2 C 5,9 C 95 % 0 % 1015 hPa 0,0 l/m 0,1 km/h (0 Bft) 0 min
16.05.2012 23:47 20,9 C 5,2 C 5,6 C 95 % 0 % 1015 hPa 0,0 l/m 6,4 km/h (2 Bft) 0 min
16.05.2012 23:50 20,9 C 5,2 C 5,4 C 95 % 0 % 1015 hPa 0,0 l/m 8,1 km/h (2 Bft) 0 min
16.05.2012 23:53 20,9 C 5,3 C 5,5 C 95 % 0 % 1015 hPa 0,0 l/m 7,2 km/h (2 Bft) 0 min
16.05.2012 23:56 20,9 C 5,3 C 5,7 C 95 % 0 % 1015 hPa 0,0 l/m 3,7 km/h (1 Bft) 0 min
16.05.2012 23:59 20,9 C 5,2 C 5,6 C 95 % 0 % 1015 hPa 0,0 l/m 5,6 km/h (1 Bft) 0 min
_ Min-Zeit 17:32 07:05 18:59 14:59 - 00:47 - 15:26 -
Minimum _ 20,9 C 5,2 C 3,9 C 73 % - 1006 hPa - 0,0 km/h (0 Bft) -
_ Max-Zeit 06:59 18:08 16:17 05:44 17:38 21:56 15:20 16:41 12:14
Maximum _ 21,7 C 9,1 C 14,1 C 97 % 87 % 1015 hPa 1,0 l/m 42,7 km/h
NW (6 Bft)
3 min
Durchschnitt _ 21,2 C 6,8 C 7,4 C 89 % #2:24 h 1010 hPa #10,3 l/m 13,6 km/h (3 Bft) #2:24 h